Time,TemperatureF,DewpointF,PressureIn,WindDirection,WindDirectionDegrees,WindSpeedMPH,WindSpeedGustMPH,Humidity,HourlyPrecipIn,Conditions,Clouds,dailyrainin,SoftwareType,DateUTC
2013-10-01 00:04:00,66.3,63.6,29.87,East,97,0.0,2.0,91,0.00,,,0.00,Wunderground v.1.15,2013-10-01 05:04:00,
2013-10-01 00:14:00,66.4,63.7,29.87,ENE,68,1.0,2.0,91,0.00,,,0.00,Wunderground v.1.15,2013-10-01 05:14:00,
2013-10-01 00:19:00,66.4,63.7,29.87,ESE,118,1.0,2.0,91,0.00,,,0.00,Wunderground v.1.15,2013-10-01 05:19:00,
2013-10-01 00:29:00,66.4,64.0,29.87,ENE,77,1.0,2.0,92,0.00,,,0.00,Wunderground v.1.15,2013-10-01 05:29:00,
2013-10-01 00:34:00,66.4,64.0,29.87,SE,129,1.0,2.0,92,0.00,,,0.00,Wunderground v.1.15,2013-10-01 05:34:00,
2013-10-01 00:39:00,66.4,64.0,29.87,ESE,108,1.0,2.0,92,0.00,,,0.00,Wunderground v.1.15,2013-10-01 05:39:00,
2013-10-01 00:44:00,66.4,64.0,29.87,NNE,16,1.0,2.0,92,0.00,,,0.00,Wunderground v.1.15,2013-10-01 05:44:00,
2013-10-01 00:49:00,66.4,64.0,29.87,ESE,120,1.0,6.0,92,0.00,,,0.00,Wunderground v.1.15,2013-10-01 05:49:00,
2013-10-01 00:54:00,66.4,64.0,29.87,ESE,106,1.0,6.0,92,0.00,,,0.00,Wunderground v.1.15,2013-10-01 05:54:00,
2013-10-01 00:59:00,66.4,64.0,29.87,ENE,77,1.0,1.0,92,0.00,,,0.00,Wunderground v.1.15,2013-10-01 05:59:00,
2013-10-01 01:09:00,66.5,64.1,29.87,ENE,68,1.0,1.0,92,0.00,,,0.00,Wunderground v.1.15,2013-10-01 06:09:00,
2013-10-01 01:19:00,66.5,64.1,29.87,ESE,120,1.0,1.0,92,0.00,,,0.00,Wunderground v.1.15,2013-10-01 06:19:00,
2013-10-01 01:29:00,66.2,64.1,29.88,ESE,114,0.0,2.0,93,0.00,,,0.00,Wunderground v.1.15,2013-10-01 06:29:00,
2013-10-01 01:39:00,66.0,63.9,29.88,ESE,108,0.0,2.0,93,0.00,,,0.00,Wunderground v.1.15,2013-10-01 06:39:00,
2013-10-01 01:44:00,66.0,63.9,29.88,ENE,68,0.0,2.0,93,0.00,,,0.00,Wunderground v.1.15,2013-10-01 06:44:00,
2013-10-01 01:54:00,65.6,63.8,29.88,East,89,0.0,2.0,94,0.00,,,0.00,Wunderground v.1.15,2013-10-01 06:54:00,
2013-10-01 01:59:00,65.5,63.7,29.88,NNW,337,0.0,2.0,94,0.00,,,0.00,Wunderground v.1.15,2013-10-01 06:59:00,
2013-10-01 02:04:00,65.4,63.9,29.88,ESE,107,0.0,2.0,95,0.00,,,0.00,Wunderground v.1.15,2013-10-01 07:04:00,
2013-10-01 02:09:00,65.4,63.6,29.88,ESE,118,0.0,2.0,94,0.00,,,0.00,Wunderground v.1.15,2013-10-01 07:09:00,
2013-10-01 02:14:00,65.2,63.4,29.88,NE,40,0.0,2.0,94,0.00,,,0.00,Wunderground v.1.15,2013-10-01 07:14:00,
2013-10-01 02:24:00,65.0,63.5,29.88,East,94,0.0,2.0,95,0.00,,,0.00,Wunderground v.1.15,2013-10-01 07:24:00,
2013-10-01 02:29:00,64.8,63.3,29.88,SSW,195,0.0,2.0,95,0.00,,,0.00,Wunderground v.1.15,2013-10-01 07:29:00,
2013-10-01 02:34:00,64.7,63.2,29.88,NE,38,0.0,2.0,95,0.00,,,0.00,Wunderground v.1.15,2013-10-01 07:34:00,
2013-10-01 02:39:00,64.6,63.4,29.88,ESE,108,0.0,2.0,96,0.00,,,0.00,Wunderground v.1.15,2013-10-01 07:39:00,
2013-10-01 02:49:00,64.5,63.3,29.88,NNE,18,0.0,2.0,96,0.00,,,0.00,Wunderground v.1.15,2013-10-01 07:49:00,
2013-10-01 02:59:00,64.8,63.6,29.88,East,98,0.0,2.0,96,0.00,,,0.00,Wunderground v.1.15,2013-10-01 07:59:00,
2013-10-01 03:09:00,64.9,63.7,29.87,ESE,115,0.0,2.0,96,0.00,,,0.00,Wunderground v.1.15,2013-10-01 08:09:00,
2013-10-01 03:14:00,64.9,64.0,29.88,SSE,159,0.0,2.0,97,0.00,,,0.00,Wunderground v.1.15,2013-10-01 08:14:00,
2013-10-01 03:24:00,64.9,63.7,29.87,East,98,0.0,2.0,96,0.00,,,0.00,Wunderground v.1.15,2013-10-01 08:24:00,
2013-10-01 03:34:00,65.0,64.1,29.87,SE,142,0.0,2.0,97,0.00,,,0.00,Wunderground v.1.15,2013-10-01 08:34:00,
2013-10-01 03:39:00,65.0,64.1,29.87,SSE,168,0.0,2.0,97,0.00,,,0.00,Wunderground v.1.15,2013-10-01 08:39:00,
2013-10-01 03:49:00,64.9,64.0,29.87,East,90,0.0,2.0,97,0.00,,,0.00,Wunderground v.1.15,2013-10-01 08:49:00,
2013-10-01 03:59:00,65.0,64.1,29.87,ESE,107,0.0,2.0,97,0.00,,,0.00,Wunderground v.1.15,2013-10-01 08:59:00,
2013-10-01 04:09:00,65.3,64.4,29.87,ESE,120,0.0,2.0,97,0.00,,,0.00,Wunderground v.1.15,2013-10-01 09:09:00,
2013-10-01 04:14:00,65.2,64.3,29.87,East,93,0.0,2.0,97,0.00,,,0.00,Wunderground v.1.15,2013-10-01 09:14:00,
2013-10-01 04:19:00,65.2,64.3,29.88,ESE,114,0.0,2.0,97,0.00,,,0.00,Wunderground v.1.15,2013-10-01 09:19:00,
2013-10-01 04:29:00,65.1,64.2,29.87,ESE,117,0.0,2.0,97,0.00,,,0.00,Wunderground v.1.15,2013-10-01 09:29:00,
2013-10-01 04:34:00,65.4,64.8,29.87,East,93,0.0,2.0,98,0.00,,,0.00,Wunderground v.1.15,2013-10-01 09:34:00,
2013-10-01 04:44:00,65.6,64.7,29.88,East,97,0.0,2.0,97,0.00,,,0.00,Wunderground v.1.15,2013-10-01 09:44:00,
2013-10-01 04:49:00,65.6,64.7,29.88,ESE,114,0.0,2.0,97,0.00,,,0.00,Wunderground v.1.15,2013-10-01 09:49:00,
2013-10-01 04:59:00,65.4,64.5,29.88,East,100,0.0,2.0,97,0.00,,,0.00,Wunderground v.1.15,2013-10-01 09:59:00,
2013-10-01 05:05:00,65.7,65.1,29.88,East,94,0.0,2.0,98,0.00,,,0.00,Wunderground v.1.15,2013-10-01 10:05:00,
2013-10-01 05:10:00,65.6,64.7,29.88,East,93,0.0,2.0,97,0.00,,,0.00,Wunderground v.1.15,2013-10-01 10:10:00,
2013-10-01 05:15:00,65.6,64.7,29.88,ESE,117,0.0,2.0,97,0.00,,,0.00,Wunderground v.1.15,2013-10-01 10:15:00,
2013-10-01 05:24:00,65.4,64.5,29.89,SE,124,0.0,2.0,97,0.00,,,0.00,Wunderground v.1.15,2013-10-01 10:24:00,
2013-10-01 05:29:00,65.5,64.6,29.89,East,98,0.0,2.0,97,0.00,,,0.00,Wunderground v.1.15,2013-10-01 10:29:00,
2013-10-01 05:34:00,65.6,65.0,29.89,ESE,122,0.0,2.0,98,0.00,,,0.00,Wunderground v.1.15,2013-10-01 10:34:00,
2013-10-01 05:39:00,65.5,64.6,29.89,ESE,122,0.0,2.0,97,0.00,,,0.00,Wunderground v.1.15,2013-10-01 10:39:00,
2013-10-01 05:44:00,65.6,65.0,29.89,North,8,0.0,2.0,98,0.00,,,0.00,Wunderground v.1.15,2013-10-01 10:44:00,
2013-10-01 05:49:00,65.5,64.9,29.90,North,8,0.0,2.0,98,0.00,,,0.00,Wunderground v.1.15,2013-10-01 10:49:00,
2013-10-01 05:54:00,65.4,64.5,29.90,ENE,73,0.0,2.0,97,0.00,,,0.01,Wunderground v.1.15,2013-10-01 10:54:00,
2013-10-01 06:04:00,65.2,64.6,29.90,ENE,73,0.0,2.0,98,0.00,,,0.01,Wunderground v.1.15,2013-10-01 11:04:00,
2013-10-01 06:09:00,65.2,64.6,29.90,ENE,72,0.0,2.0,98,0.00,,,0.01,Wunderground v.1.15,2013-10-01 11:09:00,
2013-10-01 06:20:00,65.3,64.7,29.91,ESE,112,0.0,2.0,98,0.00,,,0.01,Wunderground v.1.15,2013-10-01 11:20:00,
2013-10-01 06:29:00,65.3,64.7,29.91,ESE,110,0.0,2.0,98,0.00,,,0.01,Wunderground v.1.15,2013-10-01 11:29:00,
2013-10-01 06:34:00,65.2,64.6,29.91,East,90,0.0,2.0,98,0.00,,,0.01,Wunderground v.1.15,2013-10-01 11:34:00,
2013-10-01 06:39:00,65.3,64.7,29.91,ESE,103,0.0,2.0,98,0.00,,,0.01,Wunderground v.1.15,2013-10-01 11:39:00,
2013-10-01 06:44:00,65.5,64.9,29.91,ESE,115,0.0,2.0,98,0.00,,,0.01,Wunderground v.1.15,2013-10-01 11:44:00,
2013-10-01 06:49:00,65.5,64.9,29.91,WSW,253,0.0,2.0,98,0.00,,,0.01,Wunderground v.1.15,2013-10-01 11:49:00,
2013-10-01 06:54:00,65.3,64.7,29.92,WSW,253,0.0,2.0,98,0.00,,,0.01,Wunderground v.1.15,2013-10-01 11:54:00,
2013-10-01 07:04:00,65.2,64.6,29.92,NE,50,0.0,2.0,98,0.00,,,0.01,Wunderground v.1.15,2013-10-01 12:04:00,
2013-10-01 07:09:00,65.3,64.7,29.92,NE,50,0.0,2.0,98,0.00,,,0.01,Wunderground v.1.15,2013-10-01 12:09:00,
2013-10-01 07:14:00,65.3,64.7,29.92,NE,49,0.0,2.0,98,0.00,,,0.01,Wunderground v.1.15,2013-10-01 12:14:00,
2013-10-01 07:19:00,65.3,64.7,29.92,ENE,65,0.0,2.0,98,0.00,,,0.01,Wunderground v.1.15,2013-10-01 12:19:00,
2013-10-01 07:24:00,65.4,64.8,29.93,ENE,65,0.0,2.0,98,0.00,,,0.01,Wunderground v.1.15,2013-10-01 12:24:00,
2013-10-01 07:29:00,65.2,64.6,29.93,ENE,65,0.0,2.0,98,0.00,,,0.01,Wunderground v.1.15,2013-10-01 12:29:00,
2013-10-01 07:40:00,65.6,65.3,29.93,ESE,105,0.0,2.0,99,0.00,,,0.01,Wunderground v.1.15,2013-10-01 12:40:00,
2013-10-01 07:50:00,66.1,65.8,29.94,ESE,105,0.0,2.0,99,0.00,,,0.01,Wunderground v.1.15,2013-10-01 12:50:00,
2013-10-01 07:59:00,66.4,65.8,29.94,East,95,0.0,2.0,98,0.00,,,0.01,Wunderground v.1.15,2013-10-01 12:59:00,
2013-10-01 08:04:00,66.6,66.0,29.94,ESE,117,0.0,2.0,98,0.00,,,0.01,Wunderground v.1.15,2013-10-01 13:04:00,
2013-10-01 08:14:00,67.4,66.5,29.94,ESE,104,0.0,2.0,97,0.00,,,0.01,Wunderground v.1.15,2013-10-01 13:14:00,
2013-10-01 08:19:00,67.6,66.7,29.94,SE,128,0.0,2.0,97,0.00,,,0.01,Wunderground v.1.15,2013-10-01 13:19:00,
2013-10-01 08:29:00,67.9,66.7,29.94,ESE,114,0.0,2.0,96,0.00,,,0.01,Wunderground v.1.15,2013-10-01 13:29:00,
2013-10-01 08:34:00,68.0,66.8,29.94,SE,125,0.0,2.0,96,0.00,,,0.01,Wunderground v.1.15,2013-10-01 13:34:00,
2013-10-01 08:44:00,68.5,67.3,29.94,East,86,0.0,2.0,96,0.00,,,0.01,Wunderground v.1.15,2013-10-01 13:44:00,
2013-10-01 08:49:00,68.6,67.4,29.95,East,97,0.0,2.0,96,0.00,,,0.01,Wunderground v.1.15,2013-10-01 13:49:00,
2013-10-01 08:54:00,68.8,67.3,29.95,ESE,103,0.0,3.0,95,0.00,,,0.01,Wunderground v.1.15,2013-10-01 13:54:00,
2013-10-01 09:04:00,70.3,68.5,29.95,ESE,110,0.0,2.0,94,0.00,,,0.01,Wunderground v.1.15,2013-10-01 14:04:00,
2013-10-01 09:14:00,71.1,68.7,29.95,East,90,0.0,2.0,92,0.00,,,0.01,Wunderground v.1.15,2013-10-01 14:14:00,
2013-10-01 09:24:00,72.2,69.1,29.95,ESE,103,1.0,2.0,90,0.00,,,0.01,Wunderground v.1.15,2013-10-01 14:24:00,
2013-10-01 09:34:00,72.2,68.8,29.95,ESE,120,1.0,2.0,89,0.00,,,0.01,Wunderground v.1.15,2013-10-01 14:34:00,
2013-10-01 09:39:00,73.0,69.6,29.95,East,88,1.0,5.0,89,0.00,,,0.01,Wunderground v.1.15,2013-10-01 14:39:00,
2013-10-01 09:49:00,73.7,69.2,29.95,North,357,2.0,2.0,86,0.00,,,0.01,Wunderground v.1.15,2013-10-01 14:49:00,
2013-10-01 09:54:00,74.4,69.6,29.95,South,174,1.0,2.0,85,0.00,,,0.01,Wunderground v.1.15,2013-10-01 14:54:00,
2013-10-01 10:05:00,74.5,69.3,29.95,East,92,1.0,3.0,84,0.00,,,0.01,Wunderground v.1.15,2013-10-01 15:05:00,
2013-10-01 10:09:00,74.3,68.8,29.96,SE,134,1.0,1.0,83,0.00,,,0.01,Wunderground v.1.15,2013-10-01 15:09:00,
2013-10-01 10:19:00,74.0,68.9,29.95,WSW,250,1.0,1.0,84,0.00,,,0.01,Wunderground v.1.15,2013-10-01 15:19:00,
2013-10-01 10:24:00,74.6,69.1,29.95,East,96,1.0,4.0,83,0.00,,,0.01,Wunderground v.1.15,2013-10-01 15:24:00,
2013-10-01 10:34:00,76.2,69.2,29.96,SE,142,1.0,2.0,79,0.00,,,0.01,Wunderground v.1.15,2013-10-01 15:34:00,
2013-10-01 10:44:00,76.8,69.4,29.96,ESE,122,1.0,3.0,78,0.00,,,0.01,Wunderground v.1.15,2013-10-01 15:44:00,
2013-10-01 10:54:00,77.4,69.2,29.96,SE,132,1.0,2.0,76,0.00,,,0.01,Wunderground v.1.15,2013-10-01 15:54:00,
2013-10-01 11:04:00,78.8,69.0,29.96,ESE,105,0.0,2.0,72,0.00,,,0.01,Wunderground v.1.15,2013-10-01 16:04:00,
2013-10-01 11:09:00,77.9,69.3,29.96,SSE,155,1.0,1.0,75,0.00,,,0.01,Wunderground v.1.15,2013-10-01 16:09:00,
2013-10-01 11:19:00,77.5,68.9,29.96,East,94,0.0,2.0,75,0.00,,,0.01,Wunderground v.1.15,2013-10-01 16:19:00,
2013-10-01 11:29:00,78.1,68.3,29.96,SE,134,1.0,1.0,72,0.00,,,0.01,Wunderground v.1.15,2013-10-01 16:29:00,
2013-10-01 11:34:00,78.1,68.7,29.96,SE,126,0.0,2.0,73,0.00,,,0.01,Wunderground v.1.15,2013-10-01 16:34:00,
2013-10-01 11:49:00,80.1,69.0,29.95,ESE,115,0.0,2.0,69,0.00,,,0.01,Wunderground v.1.15,2013-10-01 16:49:00,
2013-10-01 11:54:00,80.1,69.4,29.95,SSW,193,0.0,2.0,70,0.00,,,0.01,Wunderground v.1.15,2013-10-01 16:54:00,
2013-10-01 12:04:00,78.8,67.3,29.95,SW,231,0.0,2.0,68,0.00,,,0.01,Wunderground v.1.15,2013-10-01 17:04:00,
2013-10-01 12:09:00,78.8,66.5,29.94,North,350,0.0,2.0,66,0.00,,,0.01,Wunderground v.1.15,2013-10-01 17:09:00,
2013-10-01 12:19:00,79.7,66.0,29.94,ESE,107,2.0,5.0,63,0.00,,,0.01,Wunderground v.1.15,2013-10-01 17:19:00,
2013-10-01 12:24:00,80.3,66.1,29.94,ENE,72,2.0,5.0,62,0.00,,,0.01,Wunderground v.1.15,2013-10-01 17:24:00,
2013-10-01 12:34:00,81.2,66.5,29.94,East,92,1.0,2.0,61,0.00,,,0.01,Wunderground v.1.15,2013-10-01 17:34:00,
2013-10-01 12:39:00,81.3,66.1,29.93,ESE,108,1.0,1.0,60,0.00,,,0.01,Wunderground v.1.15,2013-10-01 17:39:00,
2013-10-01 12:49:00,82.1,66.8,29.93,SSE,155,1.0,2.0,60,0.00,,,0.01,Wunderground v.1.15,2013-10-01 17:49:00,
2013-10-01 12:59:00,82.4,67.6,29.93,ENE,72,0.0,2.0,61,0.00,,,0.01,Wunderground v.1.15,2013-10-01 17:59:00,
2013-10-01 13:04:00,82.1,66.4,29.93,SSE,155,0.0,2.0,59,0.00,,,0.01,Wunderground v.1.15,2013-10-01 18:04:00,
2013-10-01 13:09:00,82.0,65.3,29.93,SE,132,1.0,5.0,57,0.00,,,0.01,Wunderground v.1.15,2013-10-01 18:09:00,
2013-10-01 13:14:00,82.0,65.3,29.93,ESE,108,2.0,5.0,57,0.00,,,0.01,Wunderground v.1.15,2013-10-01 18:14:00,
2013-10-01 13:19:00,82.5,66.7,29.93,SSE,150,2.0,2.0,59,0.00,,,0.01,Wunderground v.1.15,2013-10-01 18:19:00,
2013-10-01 13:24:00,82.8,66.5,29.92,SSW,193,1.0,2.0,58,0.00,,,0.01,Wunderground v.1.15,2013-10-01 18:24:00,
2013-10-01 13:34:00,83.2,64.8,29.92,ESE,111,1.0,3.0,54,0.00,,,0.01,Wunderground v.1.15,2013-10-01 18:34:00,
2013-10-01 13:44:00,81.8,65.1,29.92,ESE,106,2.0,2.0,57,0.00,,,0.01,Wunderground v.1.15,2013-10-01 18:44:00,
2013-10-01 13:49:00,82.0,66.3,29.92,SE,132,1.0,1.0,59,0.00,,,0.01,Wunderground v.1.15,2013-10-01 18:49:00,
2013-10-01 13:59:00,83.2,65.4,29.92,East,84,1.0,1.0,55,0.00,,,0.01,Wunderground v.1.15,2013-10-01 18:59:00,
2013-10-01 14:09:00,84.2,66.3,29.91,East,95,1.0,4.0,55,0.00,,,0.01,Wunderground v.1.15,2013-10-01 19:09:00,
2013-10-01 14:19:00,83.9,66.0,29.91,SE,126,2.0,2.0,55,0.00,,,0.01,Wunderground v.1.15,2013-10-01 19:19:00,
2013-10-01 14:24:00,83.9,66.0,29.91,ESE,114,2.0,2.0,55,0.00,,,0.01,Wunderground v.1.15,2013-10-01 19:24:00,
2013-10-01 14:29:00,83.9,64.9,29.91,ENE,75,2.0,2.0,53,0.00,,,0.01,Wunderground v.1.15,2013-10-01 19:29:00,
2013-10-01 14:34:00,84.0,66.6,29.91,SW,226,2.0,2.0,56,0.00,,,0.01,Wunderground v.1.15,2013-10-01 19:34:00,
2013-10-01 14:39:00,83.7,65.3,29.91,East,84,1.0,1.0,54,0.00,,,0.01,Wunderground v.1.15,2013-10-01 19:39:00,
2013-10-01 14:44:00,83.7,64.8,29.91,NNE,28,1.0,2.0,53,0.00,,,0.01,Wunderground v.1.15,2013-10-01 19:44:00,
2013-10-01 14:49:00,83.2,64.3,29.91,East,89,2.0,2.0,53,0.00,,,0.01,Wunderground v.1.15,2013-10-01 19:49:00,
2013-10-01 15:00:00,84.4,64.9,29.90,SE,134,1.0,4.0,52,0.00,,,0.01,Wunderground v.1.15,2013-10-01 20:00:00,
2013-10-01 15:09:00,83.8,65.4,29.90,WSW,242,2.0,2.0,54,0.00,,,0.01,Wunderground v.1.15,2013-10-01 20:09:00,
2013-10-01 15:14:00,82.4,65.1,29.90,ESE,108,1.0,2.0,56,0.00,,,0.01,Wunderground v.1.15,2013-10-01 20:14:00,
2013-10-01 15:24:00,81.7,65.0,29.90,ESE,115,0.0,2.0,57,0.00,,,0.01,Wunderground v.1.15,2013-10-01 20:24:00,
2013-10-01 15:34:00,81.8,65.6,29.90,ESE,110,1.0,5.0,58,0.00,,,0.01,Wunderground v.1.15,2013-10-01 20:34:00,
2013-10-01 15:44:00,82.7,64.9,29.90,ESE,118,1.0,3.0,55,0.00,,,0.01,Wunderground v.1.15,2013-10-01 20:44:00,
2013-10-01 15:49:00,82.9,65.6,29.90,ESE,115,1.0,2.0,56,0.00,,,0.01,Wunderground v.1.15,2013-10-01 20:49:00,
2013-10-01 15:59:00,83.5,66.7,29.90,North,349,1.0,1.0,57,0.00,,,0.01,Wunderground v.1.15,2013-10-01 20:59:00,
2013-10-01 16:04:00,83.7,64.8,29.90,SSW,208,0.0,2.0,53,0.00,,,0.01,Wunderground v.1.15,2013-10-01 21:04:00,
2013-10-01 16:14:00,83.7,65.8,29.90,ESE,105,1.0,2.0,55,0.00,,,0.01,Wunderground v.1.15,2013-10-01 21:14:00,
2013-10-01 16:19:00,83.1,64.7,29.90,ESE,105,0.0,2.0,54,0.00,,,0.01,Wunderground v.1.15,2013-10-01 21:19:00,
2013-10-01 16:24:00,82.6,64.8,29.90,ESE,105,0.0,2.0,55,0.00,,,0.01,Wunderground v.1.15,2013-10-01 21:24:00,
2013-10-01 16:34:00,82.5,63.6,29.90,SE,134,1.0,4.0,53,0.00,,,0.01,Wunderground v.1.15,2013-10-01 21:34:00,
2013-10-01 16:44:00,82.3,64.0,29.90,SSE,159,0.0,2.0,54,0.00,,,0.01,Wunderground v.1.15,2013-10-01 21:44:00,
2013-10-01 16:49:00,81.9,64.7,29.90,ESE,108,0.0,2.0,56,0.00,,,0.01,Wunderground v.1.15,2013-10-01 21:49:00,
2013-10-01 16:59:00,82.2,63.9,29.90,SE,127,0.0,2.0,54,0.00,,,0.01,Wunderground v.1.15,2013-10-01 21:59:00,
2013-10-01 17:09:00,82.2,64.4,29.90,ESE,118,1.0,1.0,55,0.00,,,0.01,Wunderground v.1.15,2013-10-01 22:09:00,
2013-10-01 17:14:00,82.0,63.7,29.90,East,93,1.0,2.0,54,0.00,,,0.01,Wunderground v.1.15,2013-10-01 22:14:00,
2013-10-01 17:24:00,81.3,63.1,29.90,East,93,1.0,2.0,54,0.00,,,0.01,Wunderground v.1.15,2013-10-01 22:24:00,
2013-10-01 17:29:00,81.1,63.9,29.90,ESE,103,1.0,2.0,56,0.00,,,0.01,Wunderground v.1.15,2013-10-01 22:29:00,
2013-10-01 17:34:00,81.1,63.9,29.90,SE,136,0.0,2.0,56,0.00,,,0.01,Wunderground v.1.15,2013-10-01 22:34:00,
2013-10-01 17:39:00,80.8,64.6,29.90,SE,135,0.0,2.0,58,0.00,,,0.01,Wunderground v.1.15,2013-10-01 22:39:00,
2013-10-01 17:49:00,80.3,64.7,29.90,ESE,116,0.0,2.0,59,0.00,,,0.01,Wunderground v.1.15,2013-10-01 22:49:00,
2013-10-01 17:54:00,80.0,65.3,29.90,ESE,116,0.0,2.0,61,0.00,,,0.01,Wunderground v.1.15,2013-10-01 22:54:00,
2013-10-01 17:59:00,79.5,64.9,29.90,ESE,116,0.0,2.0,61,0.00,,,0.01,Wunderground v.1.15,2013-10-01 22:59:00,
2013-10-01 18:09:00,78.1,65.8,29.90,ESE,116,0.0,2.0,66,0.00,,,0.01,Wunderground v.1.15,2013-10-01 23:09:00,
2013-10-01 18:19:00,76.3,65.8,29.90,ESE,115,0.0,2.0,70,0.00,,,0.01,Wunderground v.1.15,2013-10-01 23:19:00,
2013-10-01 18:24:00,75.7,65.6,29.90,ESE,115,0.0,2.0,71,0.00,,,0.01,Wunderground v.1.15,2013-10-01 23:24:00,
2013-10-01 18:29:00,74.9,65.7,29.90,ESE,116,0.0,2.0,73,0.00,,,0.01,Wunderground v.1.15,2013-10-01 23:29:00,
2013-10-01 18:34:00,74.1,65.7,29.90,ESE,115,0.0,2.0,75,0.00,,,0.01,Wunderground v.1.15,2013-10-01 23:34:00,
2013-10-01 18:44:00,72.6,65.3,29.90,ESE,115,0.0,2.0,78,0.00,,,0.01,Wunderground v.1.15,2013-10-01 23:44:00,
2013-10-01 18:54:00,71.3,65.5,29.91,ESE,115,0.0,2.0,82,0.00,,,0.01,Wunderground v.1.15,2013-10-01 23:54:00,
2013-10-01 19:04:00,70.2,65.5,29.91,ESE,115,0.0,2.0,85,0.00,,,0.01,Wunderground v.1.15,2013-10-02 00:04:00,
2013-10-01 19:09:00,69.5,65.1,29.91,ESE,115,0.0,2.0,86,0.00,,,0.01,Wunderground v.1.15,2013-10-02 00:09:00,
2013-10-01 19:19:00,69.1,65.1,29.91,ESE,115,0.0,2.0,87,0.00,,,0.01,Wunderground v.1.15,2013-10-02 00:19:00,
2013-10-01 19:29:00,68.3,64.6,29.91,ESE,116,0.0,2.0,88,0.00,,,0.01,Wunderground v.1.15,2013-10-02 00:29:00,
2013-10-01 19:34:00,68.4,65.0,29.91,ESE,116,0.0,2.0,89,0.00,,,0.01,Wunderground v.1.15,2013-10-02 00:34:00,
2013-10-01 19:39:00,68.1,64.7,29.91,ESE,116,0.0,2.0,89,0.00,,,0.01,Wunderground v.1.15,2013-10-02 00:39:00,
2013-10-01 19:49:00,68.0,64.6,29.91,ESE,115,0.0,2.0,89,0.00,,,0.01,Wunderground v.1.15,2013-10-02 00:49:00,
2013-10-01 19:59:00,68.1,64.7,29.91,ESE,115,0.0,2.0,89,0.00,,,0.01,Wunderground v.1.15,2013-10-02 00:59:00,
2013-10-01 20:09:00,67.0,64.0,29.92,ESE,115,0.0,2.0,90,0.00,,,0.01,Wunderground v.1.15,2013-10-02 01:09:00,
2013-10-01 20:19:00,66.2,63.8,29.92,ESE,115,0.0,2.0,92,0.00,,,0.01,Wunderground v.1.15,2013-10-02 01:19:00,
2013-10-01 20:29:00,65.8,63.4,29.92,ESE,115,0.0,2.0,92,0.00,,,0.01,Wunderground v.1.15,2013-10-02 01:29:00,
2013-10-01 20:39:00,65.3,63.2,29.92,ESE,115,0.0,2.0,93,0.00,,,0.01,Wunderground v.1.15,2013-10-02 01:39:00,
2013-10-01 20:49:00,65.1,63.3,29.93,ESE,115,0.0,2.0,94,0.00,,,0.01,Wunderground v.1.15,2013-10-02 01:49:00,
2013-10-01 20:59:00,65.6,63.2,29.93,ESE,115,0.0,2.0,92,0.00,,,0.01,Wunderground v.1.15,2013-10-02 01:59:00,
2013-10-01 21:09:00,65.1,63.0,29.93,ESE,115,0.0,2.0,93,0.00,,,0.01,Wunderground v.1.15,2013-10-02 02:09:00,
2013-10-01 21:19:00,64.7,62.9,29.93,ESE,115,0.0,2.0,94,0.00,,,0.01,Wunderground v.1.15,2013-10-02 02:19:00,
2013-10-01 21:29:00,64.5,62.7,29.93,ESE,115,0.0,2.0,94,0.00,,,0.01,Wunderground v.1.15,2013-10-02 02:29:00,
2013-10-01 21:39:00,64.0,62.2,29.93,ESE,115,0.0,2.0,94,0.00,,,0.01,Wunderground v.1.15,2013-10-02 02:39:00,
2013-10-01 21:49:00,64.1,62.9,29.94,ESE,115,0.0,2.0,96,0.00,,,0.01,Wunderground v.1.15,2013-10-02 02:49:00,
2013-10-01 21:59:00,63.9,62.1,29.94,ESE,115,0.0,2.0,94,0.00,,,0.01,Wunderground v.1.15,2013-10-02 02:59:00,
2013-10-01 22:09:00,63.5,62.3,29.94,ESE,115,0.0,2.0,96,0.00,,,0.01,Wunderground v.1.15,2013-10-02 03:09:00,
2013-10-01 22:19:00,63.4,62.2,29.94,ESE,115,0.0,2.0,96,0.00,,,0.01,Wunderground v.1.15,2013-10-02 03:19:00,
2013-10-01 22:29:00,63.1,61.9,29.94,ESE,115,0.0,2.0,96,0.00,,,0.01,Wunderground v.1.15,2013-10-02 03:29:00,
2013-10-01 22:39:00,62.9,61.7,29.94,ESE,115,0.0,2.0,96,0.00,,,0.01,Wunderground v.1.15,2013-10-02 03:39:00,
2013-10-01 22:49:00,63.1,62.2,29.94,ESE,115,0.0,2.0,97,0.00,,,0.01,Wunderground v.1.15,2013-10-02 03:49:00,
2013-10-01 22:59:00,62.9,62.0,29.94,ESE,116,0.0,2.0,97,0.00,,,0.01,Wunderground v.1.15,2013-10-02 03:59:00,
2013-10-01 23:04:00,62.9,62.0,29.94,ESE,115,0.0,2.0,97,0.00,,,0.01,Wunderground v.1.15,2013-10-02 04:04:00,
2013-10-01 23:14:00,63.2,62.3,29.94,South,188,0.0,2.0,97,0.00,,,0.01,Wunderground v.1.15,2013-10-02 04:14:00,
2013-10-01 23:24:00,63.5,62.6,29.94,South,188,0.0,2.0,97,0.00,,,0.01,Wunderground v.1.15,2013-10-02 04:24:00,
2013-10-01 23:29:00,63.9,63.3,29.94,South,190,0.0,2.0,98,0.00,,,0.01,Wunderground v.1.15,2013-10-02 04:29:00,
2013-10-01 23:39:00,64.7,63.5,29.94,NNW,340,0.0,2.0,96,0.00,,,0.01,Wunderground v.1.15,2013-10-02 04:39:00,
2013-10-01 23:49:00,65.6,64.1,29.94,NNW,340,0.0,2.0,95,0.00,,,0.01,Wunderground v.1.15,2013-10-02 04:49:00,
2013-10-01 23:59:00,66.0,64.5,29.94,NW,317,0.0,2.0,95,0.00,,,0.01,Wunderground v.1.15,2013-10-02 04:59:00,